| time (UTC) | temp F | wind direction | speed MPH | gust MPH | rain 1hr in | rain 24hr in | rain mn in | humidity % | barometer mb |
| 20260906104527 | 71 | 55 | 0.0 | 0.0 | 0.00 | 0.16 | 0.11 | 94 | 1014.2 |
| 20260906103027 | 71 | 55 | 0.0 | 1.0 | 0.00 | 0.16 | 0.11 | 93 | 1013.9 |
| 20260906101524 | 71 | 72 | 0.0 | 0.0 | 0.00 | 0.16 | 0.11 | 93 | 1013.8 |
| 20260906100026 | 71 | 39 | 0.0 | 0.0 | 0.00 | 0.16 | 0.11 | 93 | 1013.7 |
| 20260906094527 | 71 | 39 | 0.0 | 0.0 | 0.00 | 0.16 | 0.11 | 93 | 1013.5 |
| 20260906093036 | 71 | 39 | 0.0 | 0.0 | 0.00 | 0.16 | 0.11 | 93 | 1013.4 |
| 20260906091531 | 71 | 39 | 0.0 | 0.0 | 0.00 | 0.16 | 0.11 | 93 | 1013.6 |
| 20260906090036 | 71 | 39 | 0.0 | 0.0 | 0.00 | 0.16 | 0.11 | 93 | 1013.7 |
| 20260906084526 | 71 | 39 | 0.0 | 0.0 | 0.00 | 0.16 | 0.11 | 93 | 1013.9 |
| 20260906083034 | 71 | 39 | 0.0 | 0.0 | 0.00 | 0.16 | 0.11 | 93 | 1013.8 |
| 20260906081530 | 71 | 39 | 0.0 | 0.0 | 0.00 | 0.16 | 0.11 | 93 | 1013.8 |
| 20260906080015 | 71 | 39 | 0.0 | 0.0 | 0.00 | 0.16 | 0.11 | 93 | 1013.6 |
| 20260906074523 | 72 | 39 | 0.0 | 0.0 | 0.00 | 0.16 | 0.11 | 93 | 1013.6 |
| 20260906073027 | 72 | 39 | 0.0 | 0.0 | 0.00 | 0.16 | 0.11 | 93 | 1013.6 |
| 20260906071532 | 72 | 39 | 0.0 | 0.0 | 0.00 | 0.16 | 0.11 | 93 | 1013.7 |
| 20260906070036 | 72 | 39 | 0.0 | 0.0 | 0.00 | 0.16 | 0.11 | 93 | 1013.9 |
| 20260906064518 | 72 | 39 | 0.0 | 0.0 | 0.00 | 0.16 | 0.11 | 93 | 1013.7 |
| 20260906063040 | 72 | 8 | 0.0 | 0.0 | 0.02 | 0.16 | 0.11 | 93 | 1013.8 |
| 20260906061505 | 72 | 8 | 0.0 | 0.0 | 0.07 | 0.16 | 0.11 | 92 | 1014.1 |
| 20260906060009 | 72 | 174 | 0.0 | 0.0 | 0.08 | 0.16 | 0.11 | 92 | 1014.3 |
| 20260906054536 | 72 | 243 | 0.0 | 5.0 | 0.08 | 0.16 | 0.11 | 92 | 1014.2 |
| 20260906053023 | 73 | 287 | 1.0 | 4.0 | 0.06 | 0.14 | 0.09 | 92 | 1014.4 |
| 20260906051506 | 73 | 234 | 0.0 | 0.0 | 0.01 | 0.09 | 0.04 | 92 | 1014.2 |
| 20260906050006 | 73 | 233 | 0.0 | 0.0 | 0.03 | 0.08 | 0.03 | 92 | 1013.9 |
| 20260906044512 | 73 | 240 | 1.0 | 5.0 | 0.08 | 0.08 | 0.03 | 92 | 1014.1 |
| 20260906043017 | 73 | 262 | 1.0 | 2.0 | 0.08 | 0.08 | 0.03 | 91 | 1013.6 |
| 20260906041526 | 73 | 136 | 0.0 | 2.0 | 0.08 | 0.08 | 0.03 | 91 | 1013.6 |
| 20260906040016 | 73 | 136 | 0.0 | 3.0 | 0.05 | 0.05 | 0.00 | 91 | 1013.8 |
| 20260906034508 | 73 | 85 | 0.0 | 1.0 | 0.00 | 0.00 | 0.00 | 91 | 1013.5 |
| 20260906033014 | 73 | 85 | 0.0 | 0.0 | 0.00 | 0.00 | 0.00 | 91 | 1013.4 |
| 20260906031538 | 74 | 85 | 0.0 | 1.0 | 0.00 | 0.00 | 0.00 | 90 | 1013.3 |
| 20260906030025 | 74 | 85 | 0.0 | 0.0 | 0.00 | 0.00 | 0.00 | 90 | 1013.5 |
| 20260906024504 | 74 | 85 | 0.0 | 0.0 | 0.00 | 0.00 | 0.00 | 90 | 1013.8 |
| 20260906023011 | 75 | 85 | 0.0 | 0.0 | 0.00 | 0.00 | 0.00 | 89 | 1013.8 |
| 20260906021518 | 75 | 85 | 0.0 | 0.0 | 0.00 | 0.00 | 0.00 | 88 | 1013.8 |
| 20260906020023 | 75 | 85 | 0.0 | 0.0 | 0.00 | 0.00 | 0.00 | 88 | 1013.7 |
| 20260906014529 | 75 | 85 | 0.0 | 0.0 | 0.00 | 0.00 | 0.00 | 88 | 1013.7 |
| 20260906013012 | 76 | 85 | 0.0 | 0.0 | 0.00 | 0.00 | 0.00 | 86 | 1013.5 |
| 20260906011514 | 77 | 85 | 0.0 | 0.0 | 0.00 | 0.00 | 0.00 | 85 | 1013.3 |
| 20260906010034 | 77 | 85 | 0.0 | 0.0 | 0.00 | 0.00 | 0.00 | 84 | 1013.3 |
| 20260906004527 | 78 | 85 | 0.0 | 0.0 | 0.00 | 0.00 | 0.00 | 83 | 1013.5 |
| 20260906003035 | 78 | 85 | 0.0 | 0.0 | 0.00 | 0.00 | 0.00 | 81 | 1013.4 |
| 20260906001512 | 80 | 85 | 0.0 | 0.0 | 0.00 | 0.00 | 0.00 | 78 | 1013.4 |
| 20260906000019 | 80 | 85 | 0.0 | 0.0 | 0.00 | 0.00 | 0.00 | 77 | 1013.6 |
| 20260905234527 | 80 | 85 | 0.0 | 0.0 | 0.00 | 0.00 | 0.00 | 75 | 1013.6 |
| 20260905233039 | 80 | 85 | 0.0 | 1.0 | 0.00 | 0.00 | 0.00 | 74 | 1013.7 |
| 20260905231531 | 80 | 85 | 0.0 | 2.0 | 0.00 | 0.00 | 0.00 | 75 | 1013.7 |
| 20260905230037 | 81 | 85 | 0.0 | 2.0 | 0.00 | 0.00 | 0.00 | 73 | 1013.5 |
| 20260905224523 | 82 | 85 | 1.0 | 3.0 | 0.00 | 0.00 | 0.00 | 70 | 1013.5 |
| 20260905223031 | 83 | 359 | 0.0 | 1.0 | 0.00 | 0.00 | 0.00 | 70 | 1013.5 |
| 20260905221530 | 84 | 359 | 0.0 | 2.0 | 0.00 | 0.00 | 0.00 | 70 | 1013.3 |
| 20260905220037 | 85 | 359 | 0.0 | 2.0 | 0.00 | 0.00 | 0.00 | 64 | 1013.2 |
| 20260905214518 | 85 | 359 | 0.0 | 0.0 | 0.00 | 0.00 | 0.00 | 64 | 1013.2 |
| 20260905213026 | 86 | 359 | 0.0 | 1.0 | 0.00 | 0.00 | 0.00 | 63 | 1013.1 |
| 20260905211527 | 87 | 359 | 0.0 | 2.0 | 0.00 | 0.00 | 0.00 | 62 | 1013.0 |
| 20260905210045 | 88 | 359 | 1.0 | 3.0 | 0.00 | 0.00 | 0.00 | 60 | 1012.8 |
| 20260905204742 | 89 | 33 | 0.0 | 3.0 | 0.00 | 0.00 | 0.00 | 58 | 1012.9 |
| 20260905203021 | 89 | 42 | 1.0 | 3.0 | 0.00 | 0.00 | 0.00 | 54 | 1012.7 |
| 20260905201504 | 89 | 76 | 1.0 | 4.0 | 0.00 | 0.00 | 0.00 | 56 | 1013.0 |
| 20260905200004 | 89 | 321 | 2.0 | 5.0 | 0.00 | 0.00 | 0.00 | 55 | 1013.2 |
| 20260905194504 | 89 | 46 | 1.0 | 4.0 | 0.00 | 0.00 | 0.00 | 56 | 1013.4 |
| 20260905193003 | 89 | 16 | 0.0 | 5.0 | 0.00 | 0.00 | 0.00 | 58 | 1013.4 |
| 20260905191504 | 89 | 360 | 1.0 | 4.0 | 0.00 | 0.00 | 0.00 | 58 | 1013.8 |
| 20260905190007 | 88 | 75 | 1.0 | 5.0 | 0.00 | 0.00 | 0.00 | 58 | 1014.3 |
| 20260905184509 | 88 | 296 | 1.0 | 4.0 | 0.00 | 0.00 | 0.00 | 59 | 1014.5 |
| 20260905183006 | 86 | 41 | 1.0 | 4.0 | 0.00 | 0.00 | 0.00 | 56 | 1014.6 |
| 20260905181503 | 87 | 82 | 3.0 | 5.0 | 0.00 | 0.01 | 0.00 | 55 | 1014.8 |
| 20260905180003 | 86 | 91 | 1.0 | 5.0 | 0.00 | 0.01 | 0.00 | 61 | 1014.7 |
| 20260905174517 | 86 | 49 | 1.0 | 4.0 | 0.00 | 0.01 | 0.00 | 63 | 1014.9 |
| 20260905173005 | 85 | 5 | 1.0 | 4.0 | 0.00 | 0.01 | 0.00 | 65 | 1015.0 |
| 20260905171515 | 83 | 267 | 2.0 | 5.0 | 0.00 | 0.01 | 0.00 | 69 | 1014.9 |
| 20260905170008 | 82 | 259 | 1.0 | 3.0 | 0.00 | 0.01 | 0.00 | 72 | 1014.9 |
| 20260905164509 | 80 | 276 | 1.0 | 3.0 | 0.00 | 0.01 | 0.00 | 75 | 1015.0 |
| 20260905163006 | 80 | 242 | 0.0 | 2.0 | 0.00 | 0.01 | 0.00 | 76 | 1015.2 |
| 20260905161510 | 81 | 150 | 0.0 | 4.0 | 0.00 | 0.01 | 0.00 | 77 | 1015.3 |
| 20260905160008 | 81 | 47 | 1.0 | 3.0 | 0.00 | 0.01 | 0.00 | 78 | 1015.1 |
| 20260905154507 | 79 | 242 | 1.0 | 4.0 | 0.00 | 0.01 | 0.00 | 82 | 1014.5 |
| 20260905153010 | 77 | 201 | 1.0 | 3.0 | 0.00 | 0.01 | 0.00 | 85 | 1014.4 |
| 20260905151511 | 76 | 236 | 0.0 | 2.0 | 0.00 | 0.01 | 0.00 | 86 | 1015.1 |
| 20260905150010 | 76 | 139 | 1.0 | 4.0 | 0.00 | 0.01 | 0.00 | 87 | 1015.6 |
| 20260905144513 | 75 | 159 | 1.0 | 3.0 | 0.00 | 0.01 | 0.00 | 89 | 1016.3 |
| 20260905143013 | 74 | 214 | 1.0 | 5.0 | 0.00 | 0.01 | 0.00 | 89 | 1016.8 |
| 20260905141510 | 74 | 258 | 1.0 | 5.0 | 0.00 | 0.01 | 0.00 | 90 | 1017.4 |
| 20260905140015 | 74 | 72 | 0.0 | 2.0 | 0.00 | 0.01 | 0.00 | 91 | 1016.9 |
| 20260905134503 | 74 | 44 | 1.0 | 2.0 | 0.00 | 0.01 | 0.00 | 92 | 1017.2 |
| 20260905133006 | 73 | 69 | 1.0 | 6.0 | 0.00 | 0.01 | 0.00 | 93 | 1017.3 |
| 20260905131511 | 73 | 51 | 1.0 | 5.0 | 0.00 | 0.01 | 0.00 | 93 | 1017.1 |
| 20260905130014 | 72 | 53 | 1.0 | 2.0 | 0.00 | 0.01 | 0.00 | 93 | 1017.0 |
| 20260905124514 | 72 | 89 | 2.0 | 5.0 | 0.00 | 0.01 | 0.00 | 93 | 1016.5 |
| 20260905123003 | 71 | 41 | 0.0 | 7.0 | 0.00 | 0.01 | 0.00 | 93 | 1016.5 |
| 20260905121504 | 72 | 191 | 0.0 | 3.0 | 0.00 | 0.01 | 0.00 | 94 | 1015.1 |
| 20260905120020 | 71 | 220 | 1.0 | 4.0 | 0.00 | 0.01 | 0.00 | 94 | 1015.3 |
| 20260905114520 | 70 | 236 | 0.0 | 1.0 | 0.00 | 0.01 | 0.00 | 94 | 1014.9 |
| 20260905113003 | 69 | 236 | 0.0 | 0.0 | 0.00 | 0.01 | 0.00 | 94 | 1014.7 |
| 20260905111503 | 69 | 236 | 0.0 | 0.0 | 0.00 | 0.01 | 0.00 | 94 | 1014.4 |
| 20260905110009 | 69 | 236 | 0.0 | 2.0 | 0.00 | 0.01 | 0.00 | 94 | 1014.2 |